Overview Statistics Trail Chart Weather Telemetry Raw packets
 

This is the latest recevied weather packets stored in our database for station/object KF7U. If no packets are shown the sender has not sent any weather packets the latest 10 day(s).

<< 68 69 70 71 72 73 74 >>
Time Temp. Humidity Pressure Rain* Wind** Luminosity Snow
1788184989 23.33° C 85% 1015.9 hPa 0.51 mm - - -
1788184387 23.33° C 85% 1015.9 hPa 0.51 mm - - -
1788184088 23.33° C 85% 1015.9 hPa 0.76 mm - - -
1788183787 23.33° C 86% 1015.9 hPa 0.51 mm - - -
1788183487 23.33° C 86% 1016.3 hPa 0.51 mm - - -
1788183188 23.33° C 86% 1016.3 hPa 0.51 mm - - -
1788182889 23.33° C 86% 1016.3 hPa 0.51 mm - - -
1788182588 23.33° C 85% 1015.9 hPa 0.25 mm - - -
1788182287 23.89° C 85% 1015.9 hPa 0.25 mm - - -
1788181987 23.89° C 84% 1015.6 hPa 0.25 mm - - -
1788181688 24.44° C 84% 1015.6 hPa 0.25 mm - - -
1788181387 24.44° C 82% 1015.6 hPa 0.25 mm - - -
1788181090 24.44° C 82% 1015.6 hPa 0.25 mm - - -
1788180788 24.44° C 80% 1015.6 hPa 0.25 mm - - -
1788180488 25° C 79% 1015.6 hPa 0 mm - - -
1788180188 25° C 76% 1015.2 hPa 0 mm - - -
1788179887 25° C 77% 1015.2 hPa 0 mm - - -
1788179588 24.44° C 80% 1015.2 hPa 0 mm - - -
1788179289 24.44° C 81% 1015.2 hPa 0 mm - - -
1788178987 24.44° C 81% 1014.9 hPa 0 mm - - -
1788178688 23.89° C 82% 1014.2 hPa 0 mm - - -
1788178387 24.44° C 82% 1013.9 hPa 0 mm - - -
1788178087 23.89° C 81% 1013.9 hPa 0 mm - - -
1788177788 23.89° C 82% 1013.5 hPa 0 mm - - -
1788177488 23.89° C 82% 1013.2 hPa 0 mm - - -

* Rain latest hour (hover to see other rain measurements)
** Current wind speed in m/s (hover to see current wind gust speed)